Location: Newark
(13.8117°N, 3.6025°W)
Time: 03:32:54
(UTC+00:00)

Vanguard 2 - Pass Details

Date: 26 August 2019
Orbit: 554 x 2937 km, 32.9° (Epoch: 21 September)

Event Time Altitude Azimuth Distance (km) Brightness Sun altitude
Rises 21:16:23 0° 274° (W) 6,131 12.9 -39.3°
Reaches altitude 10° 21:21:30 10° 261° (W) 5,404 12.3 -40.4°
Maximum altitude 21:33:28 24° 215° (SW) 4,680 11.4 -43.0°
Enters shadow 21:39:38 20° 190° (S) 4,951 11.4 -44.3°
Drops below altitude 10° 21:46:03 10° 169° (S) 5,610 - -45.7°
Sets 21:51:41 0° 156° (SSE) 6,398 - -46.8°
